Time,TemperatureF,DewpointF,PressureIn,WindDirection,WindDirectionDegrees,WindSpeedMPH,WindSpeedGustMPH,Humidity,HourlyPrecipIn,Conditions,Clouds,dailyrainin,SoftwareType,DateUTC
2013-04-01 00:02:00,25.0,-99.9,-100.00,SSE,147,5.0,7.0,-999,-99.99,,,-99.99,,2013-04-01 06:02:00,
2013-04-01 00:13:00,25.0,-99.9,-100.00,SSE,147,5.0,7.0,-999,-99.99,,,-99.99,,2013-04-01 06:13:00,
2013-04-01 00:23:00,25.0,-99.9,-100.00,SE,145,4.0,7.0,-999,-99.99,,,-99.99,,2013-04-01 06:23:00,
2013-04-01 00:34:00,25.0,-99.9,-100.00,SSE,157,6.0,8.0,-999,-99.99,,,-99.99,,2013-04-01 06:34:00,
2013-04-01 00:43:00,25.0,-99.9,-100.00,SSE,157,6.0,8.0,-999,-99.99,,,-99.99,,2013-04-01 06:43:00,
2013-04-01 00:53:00,25.0,-99.9,-100.00,South,187,7.0,9.0,-999,-99.99,,,-99.99,,2013-04-01 06:53:00,
2013-04-01 01:03:00,26.0,-99.9,-100.00,SSW,192,8.0,9.0,-999,-99.99,,,-99.99,,2013-04-01 07:03:00,
2013-04-01 01:13:00,26.0,-99.9,-100.00,SSW,192,8.0,9.0,-999,-99.99,,,-99.99,,2013-04-01 07:13:00,
2013-04-01 01:22:00,25.0,-99.9,-100.00,SSW,193,9.0,11.0,-999,-99.99,,,-99.99,,2013-04-01 07:22:00,
2013-04-01 01:32:00,26.0,-99.9,-100.00,SSW,192,9.0,9.0,-999,-99.99,,,-99.99,,2013-04-01 07:32:00,
2013-04-01 01:43:00,26.0,-99.9,-100.00,SSW,192,9.0,9.0,-999,-99.99,,,-99.99,,2013-04-01 07:43:00,
2013-04-01 01:53:00,26.0,-99.9,-100.00,SSW,197,9.0,11.0,-999,-99.99,,,-99.99,,2013-04-01 07:53:00,
2013-04-01 02:03:00,27.0,-99.9,-100.00,SSW,199,9.0,11.0,-999,-99.99,,,-99.99,,2013-04-01 08:03:00,
2013-04-01 02:13:00,27.0,-99.9,-100.00,SSW,199,9.0,11.0,-999,-99.99,,,-99.99,,2013-04-01 08:13:00,
2013-04-01 02:23:00,27.0,-99.9,-100.00,SSW,200,6.0,8.0,-999,-99.99,,,-99.99,,2013-04-01 08:23:00,
2013-04-01 02:32:00,27.0,-99.9,-100.00,SSW,199,7.0,9.0,-999,-99.99,,,-99.99,,2013-04-01 08:32:00,
2013-04-01 02:44:00,27.0,-99.9,-100.00,SSW,199,7.0,9.0,-999,-99.99,,,-99.99,,2013-04-01 08:44:00,
2013-04-01 02:53:00,26.0,-99.9,-100.00,SSW,198,5.0,9.0,-999,-99.99,,,-99.99,,2013-04-01 08:53:00,
2013-04-01 03:03:00,26.0,-99.9,-100.00,SSW,198,4.0,8.0,-999,-99.99,,,-99.99,,2013-04-01 09:03:00,
2013-04-01 03:12:00,26.0,-99.9,-100.00,SSW,198,4.0,8.0,-999,-99.99,,,-99.99,,2013-04-01 09:12:00,
2013-04-01 03:23:00,25.0,-99.9,-100.00,SSW,198,3.0,9.0,-999,-99.99,,,-99.99,,2013-04-01 09:23:00,
2013-04-01 03:33:00,25.0,-99.9,-100.00,SSW,198,3.0,5.0,-999,-99.99,,,-99.99,,2013-04-01 09:33:00,
2013-04-01 03:43:00,25.0,-99.9,-100.00,SSW,198,3.0,5.0,-999,-99.99,,,-99.99,,2013-04-01 09:43:00,
2013-04-01 03:54:00,25.0,-99.9,-100.00,SSW,193,3.0,5.0,-999,-99.99,,,-99.99,,2013-04-01 09:54:00,
2013-04-01 04:03:00,24.0,-99.9,-100.00,SSW,192,1.0,4.0,-999,-99.99,,,-99.99,,2013-04-01 10:03:00,
2013-04-01 04:13:00,23.0,-99.9,-100.00,SSW,192,1.0,2.0,-999,-99.99,,,-99.99,,2013-04-01 10:13:00,
2013-04-01 04:24:00,23.0,-99.9,-100.00,SSW,192,1.0,2.0,-999,-99.99,,,-99.99,,2013-04-01 10:24:00,
2013-04-01 04:34:00,24.0,-99.9,-100.00,SSW,193,3.0,7.0,-999,-99.99,,,-99.99,,2013-04-01 10:34:00,
2013-04-01 04:43:00,24.0,-99.9,-100.00,SSW,193,3.0,7.0,-999,-99.99,,,-99.99,,2013-04-01 10:43:00,
2013-04-01 04:54:00,24.0,-99.9,-100.00,SSW,192,3.0,5.0,-999,-99.99,,,-99.99,,2013-04-01 10:54:00,
2013-04-01 05:03:00,24.0,-99.9,-100.00,SSW,192,5.0,7.0,-999,-99.99,,,-99.99,,2013-04-01 11:03:00,
2013-04-01 05:13:00,24.0,-99.9,-100.00,SSW,194,5.0,7.0,-999,-99.99,,,-99.99,,2013-04-01 11:13:00,
2013-04-01 05:23:00,24.0,-99.9,-100.00,SSW,194,5.0,7.0,-999,-99.99,,,-99.99,,2013-04-01 11:23:00,
2013-04-01 05:33:00,26.0,-99.9,-100.00,SSW,209,6.0,8.0,-999,-99.99,,,-99.99,,2013-04-01 11:33:00,
2013-04-01 05:43:00,26.0,-99.9,-100.00,SSW,209,6.0,8.0,-999,-99.99,,,-99.99,,2013-04-01 11:43:00,
2013-04-01 05:53:00,26.0,-99.9,-100.00,SW,217,6.0,8.0,-999,-99.99,,,-99.99,,2013-04-01 11:53:00,
2013-04-01 06:03:00,26.0,-99.9,-100.00,SW,220,6.0,8.0,-999,-99.99,,,-99.99,,2013-04-01 12:03:00,
2013-04-01 06:12:00,26.0,-99.9,-100.00,SW,220,5.0,7.0,-999,-99.99,,,-99.99,,2013-04-01 12:12:00,
2013-04-01 06:23:00,26.0,-99.9,-100.00,SW,220,5.0,7.0,-999,-99.99,,,-99.99,,2013-04-01 12:23:00,
2013-04-01 06:33:00,26.0,-99.9,-100.00,SW,220,5.0,7.0,-999,-99.99,,,-99.99,,2013-04-01 12:33:00,
2013-04-01 06:43:00,25.0,-99.9,-100.00,SW,220,5.0,7.0,-999,-99.99,,,-99.99,,2013-04-01 12:43:00,
2013-04-01 06:53:00,25.0,-99.9,-100.00,SW,220,5.0,7.0,-999,-99.99,,,-99.99,,2013-04-01 12:53:00,
2013-04-01 07:03:00,26.0,-99.9,-100.00,SW,220,5.0,7.0,-999,-99.99,,,-99.99,,2013-04-01 13:03:00,
2013-04-01 07:13:00,26.0,-99.9,-100.00,SW,220,5.0,7.0,-999,-99.99,,,-99.99,,2013-04-01 13:13:00,
2013-04-01 07:23:00,26.0,-99.9,-100.00,SW,220,4.0,7.0,-999,-99.99,,,-99.99,,2013-04-01 13:23:00,
2013-04-01 07:33:00,24.0,-99.9,-100.00,SW,221,4.0,5.0,-999,-99.99,,,-99.99,,2013-04-01 13:33:00,
2013-04-01 07:43:00,24.0,-99.9,-100.00,SW,221,4.0,5.0,-999,-99.99,,,-99.99,,2013-04-01 13:43:00,
2013-04-01 07:53:00,24.0,-99.9,-100.00,SW,219,2.0,4.0,-999,-99.99,,,-99.99,,2013-04-01 13:53:00,
2013-04-01 08:04:00,26.0,-99.9,-100.00,SW,219,2.0,4.0,-999,-99.99,,,-99.99,,2013-04-01 14:04:00,
2013-04-01 08:13:00,29.0,-99.9,-100.00,SW,220,2.0,4.0,-999,-99.99,,,-99.99,,2013-04-01 14:13:00,
2013-04-01 08:23:00,29.0,-99.9,-100.00,SW,220,2.0,4.0,-999,-99.99,,,-99.99,,2013-04-01 14:23:00,
2013-04-01 08:33:00,34.0,-99.9,-100.00,SW,220,3.0,5.0,-999,-99.99,,,-99.99,,2013-04-01 14:33:00,
2013-04-01 08:53:00,35.0,-99.9,-100.00,SW,219,2.0,4.0,-999,-99.99,,,-99.99,,2013-04-01 14:53:00,
2013-04-01 09:03:00,36.0,-99.9,-100.00,SSW,213,3.0,7.0,-999,-99.99,,,-99.99,,2013-04-01 15:03:00,
2013-04-01 09:23:00,38.0,-99.9,-100.00,SW,214,4.0,5.0,-999,-99.99,,,-99.99,,2013-04-01 15:23:00,
2013-04-01 09:34:00,39.0,-99.9,-100.00,SW,214,4.0,5.0,-999,-99.99,,,-99.99,,2013-04-01 15:34:00,
2013-04-01 09:54:00,35.0,-99.9,-100.00,SW,218,6.0,9.0,-999,-99.99,,,-99.99,,2013-04-01 15:54:00,
2013-04-01 10:03:00,37.0,-99.9,-100.00,SW,223,6.0,8.0,-999,-99.99,,,-99.99,,2013-04-01 16:03:00,
2013-04-01 10:24:00,35.0,-99.9,-100.00,SW,223,8.0,11.0,-999,-99.99,,,-99.99,,2013-04-01 16:24:00,
2013-04-01 10:33:00,35.0,-99.9,-100.00,SW,223,8.0,11.0,-999,-99.99,,,-99.99,,2013-04-01 16:33:00,
2013-04-01 10:43:00,35.0,-99.9,-100.00,SW,223,8.0,11.0,-999,-99.99,,,-99.99,,2013-04-01 16:43:00,
2013-04-01 11:42:00,42.0,-99.9,-100.00,SSW,208,8.0,12.0,-999,-99.99,,,-99.99,,2013-04-01 17:42:00,
2013-04-01 11:54:00,42.0,-99.9,-100.00,SSW,208,8.0,12.0,-999,-99.99,,,-99.99,,2013-04-01 17:54:00,
2013-04-01 12:03:00,42.0,-99.9,-100.00,SSW,210,8.0,9.0,-999,-99.99,,,-99.99,,2013-04-01 18:03:00,
2013-04-01 12:13:00,48.0,-99.9,-100.00,SSW,195,5.0,8.0,-999,-99.99,,,-99.99,,2013-04-01 18:13:00,
2013-04-01 12:22:00,48.0,-99.9,-100.00,SSW,195,5.0,8.0,-999,-99.99,,,-99.99,,2013-04-01 18:22:00,
2013-04-01 12:33:00,53.0,-99.9,-100.00,SSW,199,2.0,5.0,-999,-99.99,,,-99.99,,2013-04-01 18:33:00,
2013-04-01 12:54:00,54.0,-99.9,-100.00,SSW,210,2.0,7.0,-999,-99.99,,,-99.99,,2013-04-01 18:54:00,
2013-04-01 13:04:00,50.0,-99.9,-100.00,South,187,5.0,8.0,-999,-99.99,,,-99.99,,2013-04-01 19:04:00,
2013-04-01 13:23:00,51.0,-99.9,-100.00,SW,220,5.0,8.0,-999,-99.99,,,-99.99,,2013-04-01 19:23:00,
2013-04-01 13:33:00,50.0,-99.9,-100.00,SW,225,3.0,7.0,-999,-99.99,,,-99.99,,2013-04-01 19:33:00,
2013-04-01 13:43:00,48.0,-99.9,-100.00,WSW,240,2.0,4.0,-999,-99.99,,,-99.99,,2013-04-01 19:43:00,
2013-04-01 13:53:00,48.0,-99.9,-100.00,WSW,240,2.0,4.0,-999,-99.99,,,-99.99,,2013-04-01 19:53:00,
2013-04-01 14:03:00,49.0,-99.9,-100.00,WSW,238,1.0,5.0,-999,-99.99,,,-99.99,,2013-04-01 20:03:00,
2013-04-01 14:23:00,46.0,-99.9,-100.00,South,184,1.0,5.0,-999,-99.99,,,-99.99,,2013-04-01 20:23:00,
2013-04-01 14:33:00,49.0,-99.9,-100.00,SSW,196,1.0,2.0,-999,-99.99,,,-99.99,,2013-04-01 20:33:00,
2013-04-01 14:53:00,39.0,-99.9,-100.00,WSW,253,0.0,1.0,-999,-99.99,,,-99.99,,2013-04-01 20:53:00,
2013-04-01 15:03:00,52.0,-99.9,-100.00,SSE,158,2.0,5.0,-999,-99.99,,,-99.99,,2013-04-01 21:03:00,
2013-04-01 15:23:00,54.0,-99.9,-100.00,ESE,106,2.0,4.0,-999,-99.99,,,-99.99,,2013-04-01 21:23:00,
2013-04-01 15:33:00,54.0,-99.9,-100.00,SE,145,2.0,7.0,-999,-99.99,,,-99.99,,2013-04-01 21:33:00,
2013-04-01 15:53:00,49.0,-99.9,-100.00,South,173,6.0,9.0,-999,-99.99,,,-99.99,,2013-04-01 21:53:00,
2013-04-01 16:03:00,50.0,-99.9,-100.00,South,177,6.0,9.0,-999,-99.99,,,-99.99,,2013-04-01 22:03:00,
2013-04-01 16:13:00,49.0,-99.9,-100.00,SE,134,3.0,7.0,-999,-99.99,,,-99.99,,2013-04-01 22:13:00,
2013-04-01 16:23:00,49.0,-99.9,-100.00,SE,134,3.0,7.0,-999,-99.99,,,-99.99,,2013-04-01 22:23:00,
2013-04-01 16:33:00,48.0,-99.9,-100.00,SE,131,4.0,7.0,-999,-99.99,,,-99.99,,2013-04-01 22:33:00,
2013-04-01 16:53:00,46.0,-99.9,-100.00,SSE,149,3.0,7.0,-999,-99.99,,,-99.99,,2013-04-01 22:53:00,
2013-04-01 17:03:00,47.0,-99.9,-100.00,SE,138,3.0,5.0,-999,-99.99,,,-99.99,,2013-04-01 23:03:00,
2013-04-01 17:23:00,48.0,-99.9,-100.00,ESE,117,1.0,5.0,-999,-99.99,,,-99.99,,2013-04-01 23:23:00,
2013-04-01 17:32:00,44.0,-99.9,-100.00,NE,51,0.0,4.0,-999,-99.99,,,-99.99,,2013-04-01 23:32:00,
2013-04-01 17:43:00,44.0,-99.9,-100.00,NE,51,0.0,4.0,-999,-99.99,,,-99.99,,2013-04-01 23:43:00,
2013-04-01 17:53:00,39.0,-99.9,-100.00,North,8,1.0,4.0,-999,-99.99,,,-99.99,,2013-04-01 23:53:00,
2013-04-01 18:03:00,38.0,-99.9,-100.00,North,9,0.0,2.0,-999,-99.99,,,-99.99,,2013-04-02 00:03:00,
2013-04-01 18:12:00,38.0,-99.9,-100.00,North,9,0.0,2.0,-999,-99.99,,,-99.99,,2013-04-02 00:12:00,
2013-04-01 18:23:00,40.0,-99.9,-100.00,NE,45,4.0,9.0,-999,-99.99,,,-99.99,,2013-04-02 00:23:00,
2013-04-01 18:33:00,44.0,-99.9,-100.00,ENE,77,2.0,5.0,-999,-99.99,,,-99.99,,2013-04-02 00:33:00,
2013-04-01 18:43:00,39.0,-99.9,-100.00,NNE,25,7.0,12.0,-999,-99.99,,,-99.99,,2013-04-02 00:43:00,
2013-04-01 18:53:00,39.0,-99.9,-100.00,NNE,25,7.0,12.0,-999,-99.99,,,-99.99,,2013-04-02 00:53:00,
2013-04-01 19:03:00,36.0,-99.9,-100.00,ENE,57,7.0,9.0,-999,-99.99,,,-99.99,,2013-04-02 01:03:00,
2013-04-01 19:12:00,36.0,-99.9,-100.00,ENE,57,7.0,9.0,-999,-99.99,,,-99.99,,2013-04-02 01:12:00,
2013-04-01 19:22:00,33.0,-99.9,-100.00,NE,49,7.0,9.0,-999,-99.99,,,-99.99,,2013-04-02 01:22:00,
2013-04-01 19:32:00,33.0,-99.9,-100.00,ENE,66,5.0,8.0,-999,-99.99,,,-99.99,,2013-04-02 01:32:00,
2013-04-01 19:43:00,33.0,-99.9,-100.00,ENE,66,5.0,8.0,-999,-99.99,,,-99.99,,2013-04-02 01:43:00,
2013-04-01 19:53:00,33.0,-99.9,-100.00,NE,42,3.0,7.0,-999,-99.99,,,-99.99,,2013-04-02 01:53:00,
2013-04-01 20:03:00,33.0,-99.9,-100.00,North,11,5.0,8.0,-999,-99.99,,,-99.99,,2013-04-02 02:03:00,
2013-04-01 20:13:00,33.0,-99.9,-100.00,North,11,5.0,8.0,-999,-99.99,,,-99.99,,2013-04-02 02:13:00,
2013-04-01 20:23:00,32.0,-99.9,-100.00,ENE,63,6.0,11.0,-999,-99.99,,,-99.99,,2013-04-02 02:23:00,
2013-04-01 20:33:00,30.0,-99.9,-100.00,NE,43,13.0,18.0,-999,-99.99,,,-99.99,,2013-04-02 02:33:00,
2013-04-01 20:43:00,29.0,-99.9,-100.00,NNE,30,14.0,16.0,-999,-99.99,,,-99.99,,2013-04-02 02:43:00,
2013-04-01 20:53:00,29.0,-99.9,-100.00,NNE,30,14.0,16.0,-999,-99.99,,,-99.99,,2013-04-02 02:53:00,
2013-04-01 21:03:00,29.0,-99.9,-100.00,NE,37,13.0,19.0,-999,-99.99,,,-99.99,,2013-04-02 03:03:00,
2013-04-01 21:13:00,29.0,-99.9,-100.00,NE,37,13.0,19.0,-999,-99.99,,,-99.99,,2013-04-02 03:13:00,
2013-04-01 21:22:00,29.0,-99.9,-100.00,NE,35,11.0,15.0,-999,-99.99,,,-99.99,,2013-04-02 03:22:00,
2013-04-01 21:34:00,29.0,-99.9,-100.00,NE,45,9.0,15.0,-999,-99.99,,,-99.99,,2013-04-02 03:34:00,
2013-04-01 21:44:00,29.0,-99.9,-100.00,NE,45,9.0,15.0,-999,-99.99,,,-99.99,,2013-04-02 03:44:00,
2013-04-01 21:53:00,28.0,-99.9,-100.00,NE,35,14.0,22.0,-999,-99.99,,,-99.99,,2013-04-02 03:53:00,
2013-04-01 22:03:00,28.0,-99.9,-100.00,NNE,33,18.0,22.0,-999,-99.99,,,-99.99,,2013-04-02 04:03:00,
2013-04-01 22:13:00,28.0,-99.9,-100.00,NNE,33,18.0,22.0,-999,-99.99,,,-99.99,,2013-04-02 04:13:00,
2013-04-01 22:23:00,27.0,-99.9,-100.00,NNE,33,18.0,22.0,-999,-99.99,,,-99.99,,2013-04-02 04:23:00,
2013-04-01 22:33:00,27.0,-99.9,-100.00,NNE,32,20.0,26.0,-999,-99.99,,,-99.99,,2013-04-02 04:33:00,
2013-04-01 22:43:00,27.0,-99.9,-100.00,NNE,32,20.0,26.0,-999,-99.99,,,-99.99,,2013-04-02 04:43:00,
2013-04-01 22:53:00,27.0,-99.9,-100.00,NNE,31,19.0,26.0,-999,-99.99,,,-99.99,,2013-04-02 04:53:00,
2013-04-01 23:02:00,27.0,-99.9,-100.00,NNE,32,18.0,22.0,-999,-99.99,,,-99.99,,2013-04-02 05:02:00,
2013-04-01 23:12:00,26.0,-99.9,-100.00,NE,34,17.0,24.0,-999,-99.99,,,-99.99,,2013-04-02 05:12:00,
2013-04-01 23:23:00,26.0,-99.9,-100.00,NE,34,17.0,24.0,-999,-99.99,,,-99.99,,2013-04-02 05:23:00,
2013-04-01 23:33:00,26.0,-99.9,-100.00,NE,34,18.0,24.0,-999,-99.99,,,-99.99,,2013-04-02 05:33:00,
2013-04-01 23:43:00,26.0,-99.9,-100.00,NE,34,18.0,24.0,-999,-99.99,,,-99.99,,2013-04-02 05:43:00,
2013-04-01 23:53:00,25.0,-99.9,-100.00,NNE,27,20.0,25.0,-999,-99.99,,,-99.99,,2013-04-02 05:53:00,